When you browse on this site, cookies collect data to enhance your experience and personalize the content and advertising you see.
Visit our Privacy Policy to learn more. By continuing to use the site, you agree to this use of cookies and data.
  • In Lithuania
  • List of Countries
  • For 7 days
  • Water Temperature
  • Satellite Maps
  • Weather Map
  • Weather Widgets
  • user-avatar
    Login

    Hourly Weather Toronto

    Today, 17 July, Wednesday

    Time Temperature Precipitation Wind Pressure Humidity
    00:00 +25°C° 0.2 mm 4 mps 747 mmHg 85%
    01:00 +25°C° 0.2 mm 3 mps 747 mmHg 87%
    02:00 +25°C° 0.1 mm 3 mps 747 mmHg 87%
    03:00 +24°C° 0.1 mm 2 mps 747 mmHg 88%
    04:00 +24°C° 0.1 mm 1 mps 747 mmHg 89%
    05:00 +24°C° 0.4 mm 1 mps 747 mmHg 88%
    06:00 +25°C° 0.4 mm 1 mps 747 mmHg 86%
    07:00 +25°C° 0.4 mm 1 mps 748 mmHg 85%
    08:00 +25°C° 1.5 mm 1 mps 748 mmHg 85%
    09:00 +25°C° 1.5 mm 1 mps 748 mmHg 85%
    10:00 +26°C° 1.5 mm 1 mps 747 mmHg 85%
    11:00 +26°C° 0.4 mm 1 mps 747 mmHg 81%
    12:00 +27°C° 0.4 mm 1 mps 747 mmHg 78%
    13:00 +27°C° 0.4 mm 1 mps 747 mmHg 74%
    14:00 +28°C° 0.2 mm 1 mps 747 mmHg 70%
    15:00 +28°C° 0.2 mm 1 mps 747 mmHg 67%
    16:00 +29°C° 0.2 mm 1 mps 747 mmHg 63%
    17:00 +28°C° 0 mm 1 mps 747 mmHg 66%
    18:00 +28°C° 0 mm 2 mps 747 mmHg 69%
    19:00 +27°C° 0 mm 2 mps 747 mmHg 72%
    20:00 +26°C° 0 mm 1 mps 748 mmHg 74%
    21:00 +25°C° 0 mm 1 mps 748 mmHg 77%
    22:00 +24°C° 0 mm 1 mps 748 mmHg 79%
    23:00 +24°C° 0 mm 1 mps 748 mmHg 80%

    Tomorrow, 18 July, Thursday

    Time Temperature Precipitation Wind Pressure Humidity
    00:00 +24°C° 0 mm 1 mps 748 mmHg 81%
    01:00 +23°C° 0 mm 2 mps 748 mmHg 82%
    02:00 +23°C° 0 mm 2 mps 748 mmHg 83%
    03:00 +23°C° 0 mm 2 mps 748 mmHg 84%
    04:00 +21°C° 0 mm 2 mps 748 mmHg 86%
    05:00 +23°C° 0 mm 2 mps 748 mmHg 83%
    06:00 +23°C° 0 mm 2 mps 748 mmHg 80%
    07:00 +22°C° 0 mm 3 mps 748 mmHg 77%
    08:00 +24°C° 0 mm 3 mps 748 mmHg 74%
    09:00 +25°C° 0 mm 3 mps 748 mmHg 71%
    10:00 +26°C° 0 mm 3 mps 748 mmHg 68%
    11:00 +27°C° 0 mm 3 mps 748 mmHg 66%
    12:00 +28°C° 0 mm 3 mps 748 mmHg 64%
    13:00 +29°C° 0 mm 3 mps 747 mmHg 62%
    14:00 +29°C° 0 mm 3 mps 747 mmHg 62%
    15:00 +29°C° 0 mm 3 mps 747 mmHg 62%
    16:00 +30°C° 0 mm 3 mps 746 mmHg 62%
    17:00 +29°C° 0 mm 3 mps 746 mmHg 66%
    18:00 +28°C° 0 mm 3 mps 746 mmHg 70%
    19:00 +28°C° 0 mm 3 mps 746 mmHg 74%
    20:00 +27°C° 0 mm 3 mps 746 mmHg 77%
    21:00 +26°C° 0 mm 3 mps 746 mmHg 80%
    22:00 +25°C° 0 mm 4 mps 746 mmHg 83%
    23:00 +25°C° 0.5 mm 4 mps 746 mmHg 83%

    Day after tomorrow, 19 July, Friday

    Time Temperature Precipitation Wind Pressure Humidity
    00:00 +25°C° 0.5 mm 3 mps 746 mmHg 83%
    01:00 +25°C° 0.5 mm 3 mps 745 mmHg 84%
    02:00 +25°C° 1.3 mm 3 mps 745 mmHg 85%
    03:00 +25°C° 1.3 mm 3 mps 745 mmHg 87%
    04:00 +25°C° 1.3 mm 3 mps 745 mmHg 89%
    05:00 +26°C° 0 mm 4 mps 745 mmHg 89%
    06:00 +26°C° 0 mm 5 mps 745 mmHg 90%
    07:00 +27°C° 0 mm 6 mps 745 mmHg 91%
    08:00 +28°C° 0 mm 6 mps 745 mmHg 87%
    09:00 +30°C° 0 mm 6 mps 745 mmHg 82%
    10:00 +32°C° 0 mm 6 mps 745 mmHg 78%
    11:00 +33°C° 0 mm 6 mps 745 mmHg 73%
    12:00 +34°C° 0 mm 6 mps 745 mmHg 69%
    13:00 +35°C° 0 mm 7 mps 745 mmHg 65%
    14:00 +35°C° 0.3 mm 7 mps 745 mmHg 65%
    15:00 +35°C° 0.3 mm 6 mps 745 mmHg 65%
    16:00 +34°C° 0.3 mm 6 mps 745 mmHg 65%
    17:00 +34°C° 0 mm 6 mps 745 mmHg 66%
    18:00 +34°C° 0 mm 5 mps 745 mmHg 68%
    19:00 +33°C° 0 mm 5 mps 745 mmHg 70%
    20:00 +33°C° 0 mm 4 mps 745 mmHg 75%
    21:00 +32°C° 0 mm 4 mps 746 mmHg 80%
    22:00 +30°C° 0 mm 4 mps 746 mmHg 85%
    23:00 +30°C° 0 mm 4 mps 746 mmHg 85%

    20 July, Saturday

    Time Temperature Precipitation Wind Pressure Humidity
    00:00 +29°C° 0 mm 4 mps 746 mmHg 86%
    01:00 +29°C° 0 mm 4 mps 746 mmHg 86%
    02:00 +29°C° 0 mm 4 mps 746 mmHg 86%
    03:00 +29°C° 0 mm 4 mps 745 mmHg 85%
    04:00 +28°C° 0 mm 5 mps 745 mmHg 84%
    05:00 +29°C° 0 mm 5 mps 746 mmHg 83%
    06:00 +29°C° 0 mm 5 mps 746 mmHg 81%
    07:00 +29°C° 0 mm 5 mps 746 mmHg 79%
    08:00 +30°C° 0 mm 5 mps 746 mmHg 76%
    09:00 +32°C° 0 mm 5 mps 746 mmHg 73%
    10:00 +33°C° 0 mm 5 mps 746 mmHg 71%
    11:00 +34°C° 0 mm 6 mps 746 mmHg 67%
    12:00 +35°C° 0 mm 6 mps 746 mmHg 64%
    13:00 +36°C° 0 mm 6 mps 745 mmHg 60%
    14:00 +36°C° 0.6 mm 6 mps 745 mmHg 61%
    15:00 +36°C° 0.6 mm 6 mps 745 mmHg 62%
    16:00 +36°C° 0.6 mm 6 mps 745 mmHg 63%
    17:00 +33°C° 1.9 mm 4 mps 745 mmHg 65%
    18:00 +30°C° 1.9 mm 3 mps 745 mmHg 68%
    19:00 +28°C° 1.9 mm 1 mps 745 mmHg 71%
    20:00 +28°C° 0 mm 1 mps 745 mmHg 70%
    21:00 +27°C° 0 mm 2 mps 745 mmHg 69%
    22:00 +26°C° 0 mm 3 mps 746 mmHg 68%
    23:00 +26°C° 0.1 mm 3 mps 745 mmHg 70%

    21 July, Sunday

    Time Temperature Precipitation Wind Pressure Humidity
    00:00 +25°C° 0.1 mm 3 mps 745 mmHg 72%
    01:00 +24°C° 0.1 mm 3 mps 745 mmHg 74%
    02:00 +24°C° 0 mm 3 mps 745 mmHg 69%
    03:00 +23°C° 0 mm 2 mps 745 mmHg 64%
    04:00 +23°C° 0 mm 2 mps 745 mmHg 60%
    05:00 +23°C° 0 mm 2 mps 745 mmHg 56%
    06:00 +24°C° 0 mm 1 mps 746 mmHg 53%
    07:00 +24°C° 0 mm 1 mps 746 mmHg 50%
    08:00 +26°C° 0 mm 1 mps 746 mmHg 45%
    09:00 +28°C° 0 mm 1 mps 746 mmHg 41%
    10:00 +29°C° 0 mm 2 mps 746 mmHg 36%
    11:00 +30°C° 0 mm 2 mps 746 mmHg 37%
    12:00 +31°C° 0 mm 3 mps 746 mmHg 38%
    13:00 +31°C° 0 mm 3 mps 746 mmHg 39%
    14:00 +32°C° 0 mm 4 mps 746 mmHg 43%
    15:00 +30°C° 0 mm 4 mps 746 mmHg 47%
    16:00 +30°C° 0 mm 4 mps 746 mmHg 52%
    17:00 +28°C° 0 mm 4 mps 746 mmHg 55%
    18:00 +27°C° 0 mm 4 mps 746 mmHg 58%
    19:00 +25°C° 0 mm 4 mps 745 mmHg 62%
    20:00 +25°C° 0 mm 4 mps 746 mmHg 60%
    21:00 +24°C° 0 mm 3 mps 746 mmHg 59%
    22:00 +22°C° 0 mm 3 mps 746 mmHg 58%
    23:00 +22°C° 0 mm 3 mps 746 mmHg 58%

    22 July, Monday

    Time Temperature Precipitation Wind Pressure Humidity
    00:00 +21°C° 0 mm 3 mps 746 mmHg 59%
    01:00 +20°C° 0 mm 3 mps 746 mmHg 60%
    02:00 +20°C° 0 mm 3 mps 746 mmHg 61%
    03:00 +20°C° 0 mm 3 mps 746 mmHg 62%
    04:00 +19°C° 0 mm 3 mps 746 mmHg 63%
    05:00 +20°C° 0 mm 3 mps 746 mmHg 64%
    06:00 +20°C° 0 mm 2 mps 747 mmHg 65%
    07:00 +20°C° 0 mm 2 mps 747 mmHg 66%
    08:00 +23°C° 0 mm 2 mps 747 mmHg 61%
    09:00 +25°C° 0 mm 1 mps 747 mmHg 56%
    10:00 +27°C° 0 mm 1 mps 747 mmHg 51%
    11:00 +27°C° 0.1 mm 2 mps 747 mmHg 51%
    12:00 +27°C° 0.1 mm 2 mps 747 mmHg 50%
    13:00 +28°C° 0.1 mm 3 mps 747 mmHg 49%
    14:00 +27°C° 0.1 mm 3 mps 747 mmHg 47%
    15:00 +27°C° 0.1 mm 3 mps 747 mmHg 46%
    16:00 +26°C° 0.1 mm 4 mps 747 mmHg 45%
    17:00 +25°C° 0 mm 4 mps 747 mmHg 48%
    18:00 +23°C° 0 mm 5 mps 747 mmHg 50%
    19:00 +21°C° 0 mm 5 mps 748 mmHg 53%
    20:00 +21°C° 0 mm 5 mps 748 mmHg 57%
    21:00 +20°C° 0 mm 5 mps 748 mmHg 61%
    22:00 +19°C° 0 mm 5 mps 748 mmHg 64%
    23:00 +17°C° 0 mm 5 mps 748 mmHg 65%
    Show more